This is the latest recevied weather packets stored in our database for station/object WD4HMR. If no packets are shown the sender has not sent any weather packets the latest 10 day(s).
| Time | Temp. | Humidity | Pressure | Rain* | Wind** | Luminosity | Snow |
|---|---|---|---|---|---|---|---|
| 1778185112 | 20.56° C | 72% | 1015.1 hPa | 0 mm | - | - | - |
| 1778184852 | 20° C | 72% | 1015.1 hPa | 0 mm | - | - | - |
| 1778184693 | 20.56° C | 73% | 1015.2 hPa | 0 mm | - | - | - |
| 1778184272 | 20° C | 73% | 1015.2 hPa | 0 mm | - | - | - |
| 1778183892 | 19.44° C | 75% | 1015.2 hPa | 0 mm | - | - | - |
| 1778183851 | 19.44° C | 75% | 1015.2 hPa | 0 mm | - | - | - |
| 1778183431 | 19.44° C | 75% | 1015.3 hPa | 0 mm | - | - | - |
| 1778183412 | 19.44° C | 75% | 1015.3 hPa | 0 mm | - | - | - |
| 1778183011 | 19.44° C | 74% | 1015.2 hPa | 0 mm | - | - | - |
| 1778182932 | 19.44° C | 75% | 1015.1 hPa | 0 mm | - | - | - |
| 1778182591 | 19.44° C | 76% | 1015 hPa | 0 mm | - | - | - |
| 1778182452 | 19.44° C | 76% | 1015 hPa | 0 mm | - | - | - |
| 1778182171 | 19.44° C | 76% | 1015.2 hPa | 0 mm | - | - | - |
| 1778181972 | 18.89° C | 76% | 1015.2 hPa | 0 mm | - | - | - |
| 1778181751 | 18.89° C | 78% | 1015.1 hPa | 0 mm | - | - | - |
| 1778181492 | 18.89° C | 79% | 1015.2 hPa | 0 mm | - | - | - |
| 1778181332 | 18.89° C | 78% | 1015.2 hPa | 0 mm | - | - | - |
| 1778180912 | 18.89° C | 77% | 1015 hPa | 0 mm | - | - | - |
| 1778180533 | 18.33° C | 79% | 1015.1 hPa | 0 mm | - | - | - |
| 1778180492 | 18.33° C | 80% | 1015.1 hPa | 0 mm | - | - | - |
| 1778180072 | 18.33° C | 80% | 1015.2 hPa | 0 mm | - | - | - |
| 1778180052 | 18.33° C | 80% | 1015.2 hPa | 0 mm | - | - | - |
| 1778179651 | 18.33° C | 81% | 1015 hPa | 0 mm | - | - | - |
| 1778179573 | 18.33° C | 81% | 1015 hPa | 0 mm | - | - | - |
| 1778179231 | 17.78° C | 82% | 1015.2 hPa | 0 mm | - | - | - |
* Rain latest hour (hover to see other rain measurements)
** Current wind speed in m/s (hover to see current wind gust speed)